Lawrence, KS

10:06 AM CDT on October 18, 2017 (GMT -0500)
Lawrence Municipal

Weather History for KLWC - May, 2014

Change the Weather History Date:

Sunday, May 18, 2014

  Actual Average Record
Temperature  
Mean Temperature 56 °F 65 °F  
Max Temperature 75 °F 77 °F 91 °F (1997)
Min Temperature 37 °F 54 °F 37 °F (2014)
Degree Days  
Heating Degree Days 9 3  
Month to date heating degree days 114 82  
Since 1 July heating degree days 5635 5061  
Cooling Degree Days 0 3  
Month to date cooling degree days 54 36  
Year to date cooling degree days 64 59  
Growing Degree Days 6 (Base 50)    
Moisture  
Dew Point 44 °F    
Average Humidity 64    
Maximum Humidity 93    
Minimum Humidity 35    
Precipitation  
Precipitation 0.00 in 0.16 in 0.91 in (2017)
Month to date precipitation 1.09 2.79  
Year to date precipitation 6.68 11.49  
Sea Level Pressure  
Sea Level Pressure 30.10 in    
Wind  
Wind Speed 10 mph (SE)    
Max Wind Speed 24 mph    
Max Gust Speed 29 mph    
Visibility 9 miles    
Events      
T = Trace of Precipitation, MM = Missing Value Source: NWS Daily Summary

Daily Weather History Graph

Daily Weather History Graph

Search for Another Location

Airport or City:

Trip Planner

Search our weather history database for the weather conditions in past years. The results will help you decide how hot, cold, wet, or windy it might be!

Date:

Astronomy

May. 18, 2014 Rise Set
Actual Time 6:05 AM CDT 8:29 PM CDT
Civil Twilight 5:35 AM CDT 9:00 PM CDT
Nautical Twilight 4:57 AM CDT 9:37 PM CDT
Astronomical Twilight 4:16 AM CDT 10:19 PM CDT
Moon No Moon Rise 9:55 AM CDT
Length of Visible Light 15h 24m
Length of Day
14h 24m
Waning Gibbous, 81% of the Moon is Illuminated
May 18
Waning Gibbous
May 21
Last Quarter
May 28
New
Jun 5
First Quarter
Jun 12
Full

Hourly Weather History & Observations

Time (CDT) Temp. Dew Point Humidity Pressure Visibility Wind Dir Wind Speed Gust Speed Precip Events Conditions
12:52 AM 42.1 °F 39.0 °F 89% 30.18 in 10.0 mi Calm Calm - N/A   Clear
1:52 AM 41.0 °F 37.0 °F 86% 30.18 in 10.0 mi Calm Calm - N/A   Clear
2:52 AM 39.9 °F 37.0 °F 89% 30.18 in 8.0 mi Calm Calm - N/A   Clear
3:52 AM 39.0 °F 36.0 °F 89% 30.19 in 6.0 mi Calm Calm - N/A   Clear
4:52 AM 37.9 °F 35.1 °F 89% 30.19 in 7.0 mi Calm Calm - N/A   Clear
5:52 AM 37.9 °F 36.0 °F 93% 30.19 in 9.0 mi Calm Calm - N/A   Clear
6:52 AM 41.0 °F 39.0 °F 93% 30.18 in 6.0 mi Calm Calm - N/A   Clear
7:52 AM 51.1 °F 42.1 °F 71% 30.19 in 10.0 mi ESE 4.6 mph - N/A   Clear
8:52 AM 55.9 °F 43.0 °F 62% 30.19 in 10.0 mi SSE 9.2 mph - N/A   Clear
9:52 AM 64.0 °F 46.0 °F 52% 30.17 in 10.0 mi SE 9.2 mph - N/A   Clear
10:52 AM 66.9 °F 46.9 °F 49% 30.16 in 10.0 mi SSE 13.8 mph - N/A   Clear
11:52 AM 69.1 °F 48.0 °F 47% 30.16 in 10.0 mi South 16.1 mph 25.3 mph N/A   Scattered Clouds
12:52 PM 70.0 °F 48.0 °F 46% 30.13 in 10.0 mi South 16.1 mph 23.0 mph N/A   Partly Cloudy
1:52 PM 71.1 °F 46.9 °F 42% 30.12 in 10.0 mi SSE 13.8 mph 24.2 mph N/A   Scattered Clouds
2:52 PM 73.0 °F 45.0 °F 37% 30.09 in 10.0 mi SSE 12.7 mph 23.0 mph N/A   Clear
3:52 PM 73.0 °F 46.0 °F 38% 30.05 in 10.0 mi SE 13.8 mph 23.0 mph N/A   Scattered Clouds
4:52 PM 75.0 °F 46.9 °F 37% 30.02 in 10.0 mi SSE 17.3 mph 24.2 mph N/A   Partly Cloudy
5:52 PM 73.0 °F 46.9 °F 39% 30.01 in 10.0 mi SE 20.7 mph 27.6 mph N/A   Clear
6:52 PM 73.0 °F 48.0 °F 41% 29.98 in 10.0 mi SE 17.3 mph 26.5 mph N/A   Clear
7:52 PM 71.1 °F 48.9 °F 45% 29.97 in 10.0 mi SE 11.5 mph 23.0 mph N/A   Clear
8:52 PM 68.0 °F 50.0 °F 52% 29.96 in 10.0 mi ESE 15.0 mph - N/A   Clear
9:52 PM 66.9 °F 50.0 °F 54% 29.95 in 10.0 mi SE 13.8 mph - N/A   Clear
10:52 PM 66.0 °F 50.0 °F 56% 29.96 in 10.0 mi SE 13.8 mph - N/A   Clear